Regional Weather Roundup
Issued by NWS

Home | Current Version | Previous Version | Graphics & Text | Print | Product List | Glossary On
Versions: 1 2 3 4 5 6 7 8 9 10 11 12 13 14 15 16 17 18 19 20 21 22 23 24 25 26 27 28 29 30 31 32 33 34 35 36 37 38 39 40 41 42 43 44 45 46 47 48 49 50
000
ASUS43 KLOT 230806
RWRIL

ILLINOIS REGIONAL WEATHER ROUNDUP
NATIONAL WEATHER SERVICE CHICAGO/ROMEOVILLE IL
300 AM CDT WED APR 23 2014

NOTE: "FAIR" INDICATES FEW OR NO CLOUDS BELOW 12,000 FEET WITH NO
SIGNIFICANT WEATHER AND/OR OBSTRUCTIONS TO VISIBILITY.

* THESE STATIONS ARE NOT UNDER NWS QUALITY CONTROL. THEY ALSO MAY NOT
  REPORT WEATHER SUCH AS PRECIPITATION OR FOG.

ILZ001-002-007-009-015-016-024-230900-
NORTHWEST ILLINOIS

CITY           SKY/WX    TMP DP  RH WIND       PRES   REMARKS
MOLINE         PTCLDY    38  30  73 E8        30.09S WCI  32
STERLING*      CLEAR     36  30  80 E6        30.10F WCI  31
SAVANNA*       CLEAR     37  32  83 NE3       30.11S
$$

ILZ003-004-008-010-011-017-018-230900-
NORTH CENTRAL ILLINOIS

CITY           SKY/WX    TMP DP  RH WIND       PRES   REMARKS
ROCKFORD       CLEAR     35  27  72 E3        30.14R
FREEPORT*      CLEAR     31  27  85 E5        30.13F WCI  26
ROCHELLE*      CLEAR     33  28  79 NE3       30.12S
DE KALB*       CLEAR     31  26  79 NE7       30.11S WCI  25
PERU*          CLEAR     36  30  80 CALM      30.11R
$$

ILZ005-006-012>014-019>023-230900-
NORTHEAST ILLINOIS

CITY           SKY/WX    TMP DP  RH WIND       PRES   REMARKS
CHICAGO-OHARE  CLEAR     36  26  67 N8        30.11S WCI  30
CHICAGO-MIDWAY CLEAR     38  29  70 N12       30.11S WCI  30
AURORA         CLEAR     32  25  75 NE5       30.11S WCI  27
LANSING*       CLEAR     37  29  71 N8        30.11S WCI  31
JOLIET*        CLEAR     37  28  72 NE7       30.12R WCI  31
WAUKEGAN       CLEAR     33  27  78 N7        30.11F WCI  27
DUPAGE AIRPORT CLEAR     34  28  79 NE8       30.10S WCI  27
KANKAKEE*      CLEAR     37  30  77 N3        30.11R
WHEELING       CLEAR     35  28  75 N3        30.13S
MORRIS*        CLEAR     36  27  70 NE3       30.10S
NORTHERLY ISL    N/A     37  30  76 N13         N/A  WCI  29
$$

LMZ740>746-230900-
SOUTHERN LAKE MICHIGAN

STATION/POSITION SKY/WX   TEMP    WIND        PRES    VSBY  WAVE
                          AIR SEA DIR/SP/G                  HT/PER
                          (F)     (DEG/KT/KT) (MB)    (MI)  (FT/S)
WAUKEGAN HARBOR            36      10/ 12/ 13 1021.0F
HARRISON CRIB              37      10/ 18/ 22   N/A
BURNHAM HARBOR             37     360/ 11/ 18   N/A
CALUMET HARBOR             38     350/  9/ 16 1020.4R
MICHIGAN CITY              37     330/ 14/ 18   N/A
$$

ILZ025>027-034>036-040-047-049-050-058-095>099-230900-
WEST-CENTRAL ILLINOIS

CITY           SKY/WX    TMP DP  RH WIND       PRES   REMARKS
QUINCY         PTCLDY    44  33  65 NE7       30.05S
GALESBURG*     CLEAR     39  32  76 E8        30.09R WCI  34
MACOMB*        CLEAR     39  32  76 E8        30.10R WCI  33
JACKSONVILLE*  CLEAR     43  33  69 E13       30.08R
PITTSFIELD*    PTCLDY    49  30  47 NE5       30.07R
$$

ILZ028>032-037-038-041>044-048-051>054-059>061-230900-
CENTRAL ILLINOIS

CITY           SKY/WX    TMP DP  RH WIND       PRES   REMARKS
PONTIAC        CLEAR     36  30  80 CALM      30.10S
BLOOMINGTON    CLEAR     33  27  79 NE6       30.10S WCI  27
DECATUR        CLEAR     37  30  75 E7        30.08S WCI  32
PEORIA         PTCLDY    41  28  60 E9        30.10R
LACON*         CLEAR     33  29  86 CALM      30.11R
LINCOLN*       CLEAR     40  31  69 E6        30.10R
SPRINGFIELD    PTCLDY    43  31  62 E10       30.08R
TAYLORVILLE    PTCLDY    43  32  65 E13G22    30.08R
$$

ILZ033-039-045-046-055>057-062-063-230900-
EAST-CENTRAL ILLINOIS

CITY           SKY/WX    TMP DP  RH WIND       PRES   REMARKS
CHAMPAIGN      CLEAR     39  28  64 NE12      30.08R WCI  32
RANTOUL*       CLEAR     40  29  64 CALM      30.09S
MATTOON        CLEAR     41  31  67 NE13      30.06S
PARIS*         CLEAR     41  30  65 NE6       30.08S
$$

ILZ079-100>102-230900-
SOUTHWEST ILLINOIS

CITY           SKY/WX    TMP DP  RH WIND       PRES   REMARKS
ALTON          CLEAR     46  34  62 CALM      30.04S
BELLEVILLE     CLEAR     49  34  57 N5        30.03R
CAHOKIA*       CLEAR     43  40  89 CALM      30.03S
SPARTA*        CLEAR     48  37  66 N5        30.03S
$$

ILZ064>066-069>071-074>076-080>082-084>086-088>090-092>094-230900-
SOUTH-CENTRAL ILLINOIS

CITY           SKY/WX    TMP DP  RH WIND       PRES   REMARKS
CARBONDALE     CLEAR     43  38  82 N6        30.02R
CAIRO*         CLEAR     50  40  68 N3        30.00S
MARION         CLEAR     43  39  87 CALM      30.02R
MT. VERNON     CLEAR     41  30  65 N3        30.03R
CENTRALIA*       N/A     46  35  63 CALM      30.03R
SALEM*         CLEAR     48  37  64 N6        30.04R
METROPOLIS*    CLEAR     49  37  63 N5        29.99R
$$

ILZ067-068-072-073-078-083-087-091-230900-
SOUTHEAST ILLINOIS

CITY           SKY/WX    TMP DP  RH WIND       PRES   REMARKS
FAIRFIELD*     CLEAR     48  37  66 N7        30.03R
HARRISBURG*    CLEAR     49  36  60 N5        30.02S
ROBINSON*      CLEAR     47  37  70 NE9       30.07R
CARMI*         CLEAR     48  41  75 N6        30.01S
$$

ABBREVIATIONS USED IN REMARKS
   TC - TEMPERATURE IN CELSIUS
  WCI - WIND CHILL INDEX
   HX - HEAT INDEX
  VSB - VISIBILITY
$$




USA.gov is the U.S. government's official web portal to all federal, state and local government web resources and services.